| time (UTC) | temp F | wind direction | speed MPH | gust MPH | rain 1hr in | rain 24hr in | rain mn in | humidity % | barometer mb |
| 20260906103531 | 57 | 9 | 10.0 | 17.0 | 0.00 | 0.12 | 0.01 | 86 | 1003.7 |
| 20260906103016 | 57 | 304 | 7.0 | 17.0 | 0.00 | 0.12 | 0.01 | 87 | 1003.4 |
| 20260906102523 | 57 | 4 | 9.0 | 16.0 | 0.00 | 0.12 | 0.01 | 86 | 1003.5 |
| 20260906102020 | 57 | 13 | 9.0 | 16.0 | 0.00 | 0.12 | 0.01 | 87 | 1003.4 |
| 20260906101516 | 57 | 323 | 9.0 | 16.0 | 0.00 | 0.12 | 0.01 | 87 | 1003.4 |
| 20260906101023 | 57 | 344 | 7.0 | 17.0 | 0.00 | 0.12 | 0.01 | 87 | 1003.4 |
| 20260906100523 | 57 | 319 | 10.0 | 19.0 | 0.00 | 0.12 | 0.01 | 87 | 1003.4 |
| 20260906100020 | 57 | 14 | 9.0 | 18.0 | 0.00 | 0.12 | 0.01 | 87 | 1003.3 |
| 20260906095515 | 57 | 344 | 6.0 | 18.0 | 0.01 | 0.13 | 0.01 | 87 | 1003.3 |
| 20260906095022 | 57 | 335 | 8.0 | 18.0 | 0.01 | 0.13 | 0.01 | 87 | 1003.3 |
| 20260906094530 | 57 | 323 | 9.0 | 16.0 | 0.01 | 0.13 | 0.01 | 87 | 1003.3 |
| 20260906094016 | 57 | 319 | 7.0 | 25.0 | 0.01 | 0.13 | 0.01 | 87 | 1003.3 |
| 20260906093523 | 57 | 323 | 10.0 | 25.0 | 0.01 | 0.13 | 0.01 | 87 | 1003.2 |
| 20260906093020 | 57 | 32 | 8.0 | 17.0 | 0.01 | 0.13 | 0.01 | 87 | 1003.2 |
| 20260906092531 | 57 | 294 | 7.0 | 19.0 | 0.01 | 0.13 | 0.01 | 88 | 1003.1 |
| 20260906092023 | 56 | 327 | 7.0 | 19.0 | 0.01 | 0.13 | 0.01 | 88 | 1003.1 |
| 20260906091521 | 56 | 26 | 8.0 | 15.0 | 0.01 | 0.13 | 0.01 | 88 | 1003.1 |
| 20260906091016 | 56 | 328 | 7.0 | 15.0 | 0.01 | 0.13 | 0.01 | 88 | 1003.1 |
| 20260906090523 | 56 | 335 | 6.0 | 17.0 | 0.01 | 0.13 | 0.01 | 88 | 1003.0 |
| 20260906090021 | 56 | 338 | 9.0 | 17.0 | 0.01 | 0.13 | 0.01 | 89 | 1003.0 |
| 20260906085515 | 56 | 356 | 7.0 | 19.0 | 0.00 | 0.12 | 0.00 | 89 | 1003.0 |
| 20260906085028 | 56 | 295 | 8.0 | 19.0 | 0.00 | 0.12 | 0.00 | 88 | 1002.9 |
| 20260906084520 | 56 | 344 | 8.0 | 16.0 | 0.00 | 0.12 | 0.00 | 88 | 1003.0 |
| 20260906084027 | 57 | 319 | 9.0 | 16.0 | 0.00 | 0.12 | 0.00 | 88 | 1003.0 |
| 20260906083523 | 57 | 309 | 8.0 | 18.0 | 0.00 | 0.12 | 0.00 | 87 | 1003.0 |
| 20260906083020 | 57 | 10 | 8.0 | 17.0 | 0.00 | 0.12 | 0.00 | 87 | 1003.1 |
| 20260906082516 | 57 | 343 | 10.0 | 25.0 | 0.00 | 0.12 | 0.00 | 86 | 1003.0 |
| 20260906082034 | 57 | 334 | 8.0 | 25.0 | 0.00 | 0.12 | 0.00 | 86 | 1003.1 |
| 20260906081522 | 57 | 12 | 8.0 | 17.0 | 0.00 | 0.12 | 0.00 | 86 | 1003.0 |
| 20260906081020 | 57 | 27 | 9.0 | 17.0 | 0.00 | 0.12 | 0.00 | 86 | 1003.0 |
| 20260906080516 | 57 | 334 | 9.0 | 17.0 | 0.00 | 0.12 | 0.00 | 86 | 1003.0 |
| 20260906080023 | 57 | 321 | 7.0 | 18.0 | 0.00 | 0.12 | 0.00 | 87 | 1002.9 |
| 20260906075523 | 57 | 26 | 8.0 | 17.0 | 0.00 | 0.12 | 0.00 | 86 | 1002.9 |
| 20260906075020 | 57 | 20 | 9.0 | 16.0 | 0.00 | 0.12 | 0.00 | 86 | 1003.0 |
| 20260906074527 | 57 | 19 | 7.0 | 20.0 | 0.00 | 0.12 | 0.00 | 87 | 1003.1 |
| 20260906074023 | 57 | 20 | 10.0 | 20.0 | 0.00 | 0.12 | 0.00 | 87 | 1003.0 |
| 20260906073531 | 57 | 25 | 7.0 | 17.0 | 0.00 | 0.12 | 0.00 | 87 | 1002.9 |
| 20260906073027 | 57 | 314 | 8.0 | 17.0 | 0.00 | 0.12 | 0.00 | 87 | 1002.7 |
| 20260906072523 | 57 | 44 | 7.0 | 19.0 | 0.00 | 0.12 | 0.00 | 87 | 1002.8 |
| 20260906072023 | 57 | 317 | 8.0 | 19.0 | 0.00 | 0.12 | 0.00 | 87 | 1002.9 |
| 20260906071518 | 57 | 288 | 8.0 | 16.0 | 0.00 | 0.12 | 0.00 | 87 | 1002.9 |
| 20260906071016 | 57 | 339 | 8.0 | 16.0 | 0.00 | 0.12 | 0.00 | 87 | 1002.9 |
| 20260906070523 | 57 | 1 | 8.0 | 17.0 | 0.00 | 0.12 | 0.00 | 87 | 1002.9 |
| 20260906070020 | 57 | 72 | 8.0 | 17.0 | 0.00 | 0.12 | 0.00 | 88 | 1002.7 |
| 20260906065516 | 57 | 330 | 7.0 | 17.0 | 0.00 | 0.12 | 0.00 | 88 | 1002.6 |
| 20260906065039 | 57 | 310 | 7.0 | 17.0 | 0.00 | 0.12 | 0.00 | 88 | 1002.8 |
| 20260906064523 | 57 | 45 | 8.0 | 16.0 | 0.00 | 0.12 | 0.00 | 88 | 1002.8 |
| 20260906064020 | 57 | 16 | 8.0 | 16.0 | 0.00 | 0.12 | 0.00 | 88 | 1002.7 |
| 20260906063515 | 57 | 331 | 7.0 | 17.0 | 0.00 | 0.12 | 0.00 | 89 | 1002.7 |
| 20260906063023 | 57 | 348 | 8.0 | 17.0 | 0.00 | 0.12 | 0.00 | 89 | 1002.7 |
| 20260906062522 | 57 | 312 | 6.0 | 15.0 | 0.00 | 0.12 | 0.00 | 89 | 1002.8 |
| 20260906062018 | 57 | 350 | 8.0 | 15.0 | 0.00 | 0.12 | 0.00 | 90 | 1002.8 |
| 20260906061516 | 57 | 265 | 6.0 | 15.0 | 0.00 | 0.12 | 0.00 | 90 | 1002.8 |
| 20260906061023 | 57 | 10 | 9.0 | 15.0 | 0.00 | 0.12 | 0.00 | 90 | 1002.8 |
| 20260906060520 | 57 | 326 | 7.0 | 15.0 | 0.00 | 0.12 | 0.00 | 90 | 1002.8 |
| 20260906060018 | 57 | 349 | 8.0 | 14.0 | 0.00 | 0.12 | 0.00 | 90 | 1002.8 |
| 20260906055527 | 57 | 5 | 7.0 | 14.0 | 0.00 | 0.12 | 0.00 | 90 | 1002.8 |
| 20260906055024 | 57 | 326 | 7.0 | 16.0 | 0.00 | 0.12 | 0.00 | 90 | 1002.8 |
| 20260906054522 | 57 | 18 | 8.0 | 19.0 | 0.00 | 0.12 | 0.00 | 89 | 1002.7 |
| 20260906054020 | 57 | 324 | 8.0 | 19.0 | 0.00 | 0.12 | 0.00 | 88 | 1002.8 |
| 20260906053518 | 58 | 338 | 6.0 | 17.0 | 0.00 | 0.12 | 0.00 | 87 | 1002.6 |
| 20260906053016 | 58 | 30 | 9.0 | 17.0 | 0.00 | 0.12 | 0.00 | 87 | 1002.4 |
| 20260906052523 | 58 | 333 | 6.0 | 17.0 | 0.00 | 0.12 | 0.00 | 87 | 1002.5 |
| 20260906052023 | 58 | 330 | 8.0 | 22.0 | 0.00 | 0.12 | 0.00 | 87 | 1002.6 |
| 20260906051518 | 58 | 338 | 8.0 | 22.0 | 0.00 | 0.12 | 0.00 | 87 | 1002.6 |
| 20260906051016 | 58 | 312 | 7.0 | 17.0 | 0.00 | 0.12 | 0.00 | 87 | 1002.7 |
| 20260906050523 | 58 | 25 | 6.0 | 17.0 | 0.00 | 0.12 | 0.00 | 87 | 1002.9 |
| 20260906050022 | 58 | 23 | 7.0 | 17.0 | 0.00 | 0.12 | 0.00 | 86 | 1002.8 |
| 20260906045520 | 58 | 333 | 9.0 | 17.0 | 0.00 | 0.12 | 0.00 | 86 | 1002.8 |
| 20260906045016 | 58 | 316 | 9.0 | 17.0 | 0.00 | 0.12 | 0.00 | 86 | 1002.9 |
| 20260906044523 | 58 | 356 | 7.0 | 21.0 | 0.00 | 0.12 | 0.00 | 86 | 1002.9 |
| 20260906044022 | 58 | 29 | 10.0 | 21.0 | 0.00 | 0.12 | 0.00 | 86 | 1002.8 |
| 20260906043520 | 58 | 304 | 7.0 | 17.0 | 0.00 | 0.12 | 0.00 | 86 | 1002.7 |
| 20260906043019 | 58 | 25 | 11.0 | 16.0 | 0.00 | 0.12 | 0.00 | 86 | 1002.7 |
| 20260906042516 | 58 | 31 | 6.0 | 18.0 | 0.00 | 0.12 | 0.00 | 86 | 1002.8 |
| 20260906042023 | 58 | 332 | 9.0 | 20.0 | 0.00 | 0.12 | 0.00 | 86 | 1002.8 |
| 20260906041522 | 58 | 341 | 10.0 | 20.0 | 0.00 | 0.12 | 0.00 | 86 | 1002.8 |
| 20260906041031 | 58 | 319 | 11.0 | 19.0 | 0.00 | 0.12 | 0.00 | 86 | 1002.9 |
| 20260906040518 | 58 | 278 | 8.0 | 17.0 | 0.00 | 0.12 | 0.00 | 87 | 1002.8 |
| 20260906040016 | 58 | 328 | 9.0 | 17.0 | 0.00 | 0.12 | 0.00 | 86 | 1002.8 |
| 20260906035523 | 58 | 26 | 9.0 | 22.0 | 0.00 | 0.12 | 0.00 | 86 | 1002.7 |
| 20260906035023 | 58 | 33 | 10.0 | 22.0 | 0.00 | 0.12 | 0.00 | 86 | 1002.7 |
| 20260906034520 | 58 | 324 | 8.0 | 18.0 | 0.00 | 0.12 | 0.00 | 86 | 1002.8 |
| 20260906034018 | 58 | 15 | 8.0 | 19.0 | 0.00 | 0.12 | 0.00 | 86 | 1003.0 |
| 20260906033527 | 58 | 321 | 7.0 | 19.0 | 0.00 | 0.12 | 0.00 | 86 | 1002.9 |
| 20260906033034 | 58 | 23 | 7.0 | 21.0 | 0.00 | 0.12 | 0.00 | 86 | 1002.9 |
| 20260906032523 | 58 | 338 | 8.0 | 21.0 | 0.00 | 0.12 | 0.00 | 86 | 1002.9 |
| 20260906032021 | 58 | 338 | 9.0 | 22.0 | 0.00 | 0.12 | 0.00 | 86 | 1002.7 |
| 20260906031519 | 59 | 49 | 8.0 | 20.0 | 0.00 | 0.12 | 0.00 | 86 | 1002.8 |
| 20260906031027 | 59 | 314 | 8.0 | 20.0 | 0.00 | 0.12 | 0.00 | 86 | 1002.8 |
| 20260906030523 | 59 | 17 | 10.0 | 19.0 | 0.00 | 0.12 | 0.00 | 86 | 1002.9 |
| 20260906030023 | 59 | 294 | 7.0 | 16.0 | 0.00 | 0.12 | 0.00 | 86 | 1003.0 |
| 20260906025521 | 58 | 311 | 8.0 | 19.0 | 0.00 | 0.12 | 0.12 | 86 | 1002.9 |
| 20260906025019 | 59 | 45 | 9.0 | 21.0 | 0.00 | 0.12 | 0.12 | 86 | 1002.9 |
| 20260906024516 | 59 | 332 | 8.0 | 21.0 | 0.00 | 0.12 | 0.12 | 86 | 1002.9 |
| 20260906024023 | 59 | 39 | 7.0 | 17.0 | 0.00 | 0.12 | 0.12 | 86 | 1003.0 |
| 20260906023522 | 59 | 304 | 6.0 | 20.0 | 0.00 | 0.12 | 0.12 | 86 | 1002.9 |
| 20260906023020 | 59 | 319 | 8.0 | 24.0 | 0.00 | 0.12 | 0.12 | 86 | 1003.1 |
| 20260906022516 | 59 | 67 | 8.0 | 16.0 | 0.00 | 0.12 | 0.12 | 86 | 1003.2 |
| 20260906022028 | 59 | 349 | 7.0 | 17.0 | 0.00 | 0.12 | 0.12 | 86 | 1003.2 |
| 20260906021521 | 59 | 294 | 9.0 | 17.0 | 0.00 | 0.12 | 0.12 | 86 | 1003.1 |
| 20260906021018 | 59 | 271 | 8.0 | 18.0 | 0.00 | 0.12 | 0.12 | 86 | 1003.0 |
| 20260906020528 | 59 | 322 | 10.0 | 19.0 | 0.00 | 0.12 | 0.12 | 86 | 1003.2 |
| 20260906020023 | 59 | 56 | 8.0 | 19.0 | 0.00 | 0.12 | 0.12 | 86 | 1003.2 |
| 20260906015523 | 59 | 308 | 8.0 | 17.0 | 0.00 | 0.12 | 0.12 | 86 | 1003.1 |
| 20260906015031 | 59 | 295 | 8.0 | 17.0 | 0.00 | 0.12 | 0.12 | 86 | 1003.2 |
| 20260906014518 | 59 | 39 | 8.0 | 19.0 | 0.00 | 0.12 | 0.12 | 86 | 1003.2 |
| 20260906014016 | 59 | 352 | 10.0 | 19.0 | 0.00 | 0.12 | 0.12 | 86 | 1003.1 |
| 20260906013523 | 58 | 41 | 9.0 | 18.0 | 0.00 | 0.12 | 0.12 | 87 | 1003.2 |
| 20260906013023 | 58 | 327 | 7.0 | 17.0 | 0.00 | 0.12 | 0.12 | 87 | 1003.2 |
| 20260906012520 | 58 | 4 | 8.0 | 18.0 | 0.00 | 0.12 | 0.12 | 87 | 1003.2 |
| 20260906012018 | 59 | 14 | 9.0 | 20.0 | 0.00 | 0.12 | 0.12 | 86 | 1003.3 |
| 20260906011516 | 59 | 44 | 9.0 | 20.0 | 0.00 | 0.12 | 0.12 | 86 | 1003.4 |
| 20260906011024 | 59 | 27 | 9.0 | 19.0 | 0.00 | 0.12 | 0.12 | 86 | 1003.4 |
| 20260906010523 | 59 | 13 | 8.0 | 19.0 | 0.00 | 0.12 | 0.12 | 86 | 1003.2 |
| 20260906010031 | 59 | 6 | 10.0 | 20.0 | 0.00 | 0.12 | 0.12 | 86 | 1003.2 |
| 20260906005518 | 59 | 51 | 10.0 | 20.0 | 0.00 | 0.12 | 0.12 | 86 | 1003.2 |
| 20260906005016 | 59 | 295 | 8.0 | 18.0 | 0.00 | 0.12 | 0.12 | 86 | 1003.3 |
| 20260906004524 | 59 | 354 | 7.0 | 17.0 | 0.00 | 0.12 | 0.12 | 86 | 1003.3 |
| 20260906004022 | 59 | 311 | 7.0 | 20.0 | 0.00 | 0.12 | 0.12 | 86 | 1003.5 |
| 20260906003520 | 59 | 42 | 11.0 | 20.0 | 0.00 | 0.12 | 0.12 | 85 | 1003.4 |
| 20260906003019 | 59 | 343 | 7.0 | 17.0 | 0.00 | 0.12 | 0.12 | 86 | 1003.5 |
| 20260906002527 | 59 | 356 | 10.0 | 21.0 | 0.00 | 0.12 | 0.12 | 86 | 1003.5 |
| 20260906002024 | 59 | 70 | 10.0 | 21.0 | 0.00 | 0.12 | 0.12 | 86 | 1003.5 |
| 20260906001534 | 59 | 17 | 9.0 | 17.0 | 0.00 | 0.12 | 0.12 | 86 | 1003.5 |
| 20260906001020 | 59 | 307 | 7.0 | 18.0 | 0.00 | 0.12 | 0.12 | 86 | 1003.4 |
| 20260906000518 | 59 | 34 | 8.0 | 21.0 | 0.00 | 0.12 | 0.12 | 86 | 1003.5 |
| 20260906000016 | 59 | 15 | 8.0 | 21.0 | 0.00 | 0.12 | 0.12 | 86 | 1003.4 |
| 20260905235523 | 59 | 333 | 8.0 | 17.0 | 0.00 | 0.12 | 0.12 | 86 | 1003.3 |
| 20260905235023 | 59 | 346 | 10.0 | 18.0 | 0.00 | 0.12 | 0.12 | 86 | 1003.4 |
| 20260905234533 | 59 | 87 | 9.0 | 19.0 | 0.00 | 0.12 | 0.12 | 86 | 1003.3 |
| 20260905234019 | 59 | 123 | 11.0 | 21.0 | 0.00 | 0.12 | 0.12 | 86 | 1003.2 |
| 20260905233517 | 59 | 324 | 9.0 | 21.0 | 0.00 | 0.12 | 0.12 | 86 | 1003.1 |
| 20260905233024 | 59 | 359 | 9.0 | 19.0 | 0.00 | 0.12 | 0.12 | 86 | 1003.1 |
| 20260905232523 | 59 | 297 | 7.0 | 20.0 | 0.00 | 0.12 | 0.12 | 87 | 1003.0 |
| 20260905232021 | 59 | 37 | 9.0 | 20.0 | 0.00 | 0.12 | 0.12 | 87 | 1002.9 |
| 20260905231530 | 59 | 297 | 8.0 | 19.0 | 0.00 | 0.12 | 0.12 | 87 | 1002.8 |
| 20260905231016 | 59 | 5 | 7.0 | 17.0 | 0.00 | 0.12 | 0.12 | 87 | 1002.9 |
| 20260905230525 | 59 | 311 | 7.0 | 18.0 | 0.00 | 0.12 | 0.12 | 86 | 1002.8 |
| 20260905230023 | 59 | 352 | 8.0 | 18.0 | 0.00 | 0.12 | 0.12 | 86 | 1002.8 |
| 20260905225521 | 59 | 90 | 9.0 | 16.0 | 0.00 | 0.12 | 0.12 | 86 | 1002.6 |
| 20260905225018 | 59 | 23 | 9.0 | 23.0 | 0.00 | 0.12 | 0.12 | 86 | 1002.7 |
| 20260905224517 | 59 | 347 | 9.0 | 23.0 | 0.00 | 0.12 | 0.12 | 86 | 1002.7 |
| 20260905224024 | 59 | 359 | 7.0 | 20.0 | 0.00 | 0.12 | 0.12 | 87 | 1002.5 |
| 20260905223524 | 59 | 329 | 9.0 | 24.0 | 0.00 | 0.12 | 0.12 | 86 | 1002.5 |
| 20260905223020 | 59 | 301 | 9.0 | 24.0 | 0.00 | 0.12 | 0.12 | 87 | 1002.5 |
| 20260905222518 | 59 | 29 | 7.0 | 20.0 | 0.00 | 0.12 | 0.12 | 87 | 1002.4 |
| 20260905222016 | 59 | 319 | 9.0 | 20.0 | 0.00 | 0.12 | 0.12 | 86 | 1002.4 |
| 20260905221525 | 59 | 311 | 6.0 | 16.0 | 0.00 | 0.12 | 0.12 | 87 | 1002.4 |
| 20260905221023 | 59 | 25 | 10.0 | 17.0 | 0.00 | 0.12 | 0.12 | 86 | 1002.5 |
| 20260905220521 | 59 | 34 | 8.0 | 24.0 | 0.00 | 0.12 | 0.12 | 86 | 1002.5 |
| 20260905220018 | 59 | 144 | 11.0 | 24.0 | 0.00 | 0.12 | 0.12 | 86 | 1002.5 |
| 20260905215517 | 59 | 10 | 9.0 | 17.0 | 0.00 | 0.13 | 0.12 | 87 | 1002.4 |
| 20260905215025 | 59 | 341 | 6.0 | 17.0 | 0.00 | 0.13 | 0.12 | 87 | 1002.5 |
| 20260905214523 | 59 | 297 | 6.0 | 21.0 | 0.00 | 0.13 | 0.12 | 87 | 1002.4 |
| 20260905214032 | 59 | 307 | 7.0 | 21.0 | 0.00 | 0.13 | 0.12 | 87 | 1002.6 |
| 20260905213518 | 59 | 354 | 9.0 | 21.0 | 0.00 | 0.13 | 0.12 | 86 | 1002.5 |
| 20260905213027 | 59 | 259 | 9.0 | 23.0 | 0.00 | 0.13 | 0.12 | 86 | 1002.4 |
| 20260905212535 | 59 | 122 | 7.0 | 20.0 | 0.00 | 0.13 | 0.12 | 87 | 1002.3 |
| 20260905212024 | 59 | 303 | 6.0 | 20.0 | 0.00 | 0.13 | 0.12 | 87 | 1002.2 |
| 20260905211521 | 59 | 334 | 9.0 | 20.0 | 0.00 | 0.13 | 0.12 | 87 | 1002.2 |
| 20260905211018 | 59 | 340 | 8.0 | 22.0 | 0.00 | 0.13 | 0.12 | 87 | 1002.1 |
| 20260905210516 | 59 | 310 | 8.0 | 22.0 | 0.00 | 0.13 | 0.12 | 87 | 1002.1 |
| 20260905210024 | 59 | 58 | 7.0 | 20.0 | 0.00 | 0.13 | 0.12 | 87 | 1002.1 |
| 20260905205523 | 59 | 356 | 9.0 | 20.0 | 0.00 | 0.13 | 0.12 | 87 | 1002.1 |
| 20260905205021 | 59 | 35 | 7.0 | 19.0 | 0.00 | 0.13 | 0.12 | 87 | 1002.0 |
| 20260905204519 | 59 | 148 | 9.0 | 19.0 | 0.00 | 0.13 | 0.12 | 87 | 1001.8 |
| 20260905204017 | 59 | 52 | 9.0 | 19.0 | 0.00 | 0.13 | 0.12 | 87 | 1001.9 |
| 20260905203524 | 59 | 45 | 10.0 | 20.0 | 0.00 | 0.13 | 0.12 | 87 | 1001.8 |
| 20260905203023 | 59 | 1 | 8.0 | 20.0 | 0.00 | 0.13 | 0.12 | 88 | 1001.7 |
| 20260905202521 | 59 | 29 | 8.0 | 19.0 | 0.00 | 0.13 | 0.12 | 88 | 1001.7 |
| 20260905202020 | 59 | 352 | 7.0 | 19.0 | 0.00 | 0.13 | 0.12 | 88 | 1001.6 |
| 20260905201517 | 59 | 44 | 8.0 | 16.0 | 0.00 | 0.13 | 0.12 | 89 | 1001.6 |
| 20260905201024 | 59 | 319 | 6.0 | 16.0 | 0.00 | 0.13 | 0.12 | 89 | 1001.6 |
| 20260905200523 | 59 | 18 | 7.0 | 17.0 | 0.00 | 0.13 | 0.12 | 89 | 1001.5 |
| 20260905200032 | 59 | 10 | 7.0 | 17.0 | 0.00 | 0.13 | 0.12 | 89 | 1001.3 |
| 20260905195519 | 59 | 70 | 9.0 | 19.0 | 0.00 | 0.17 | 0.12 | 89 | 1001.4 |
| 20260905195022 | 59 | 330 | 6.0 | 19.0 | 0.00 | 0.17 | 0.12 | 89 | 1001.2 |
| 20260905194524 | 59 | 303 | 9.0 | 16.0 | 0.00 | 0.17 | 0.12 | 89 | 1001.4 |
| 20260905194034 | 59 | 71 | 8.0 | 16.0 | 0.00 | 0.17 | 0.12 | 89 | 1001.3 |
| 20260905193522 | 60 | 316 | 7.0 | 18.0 | 0.00 | 0.17 | 0.12 | 90 | 1001.3 |
| 20260905193019 | 60 | 341 | 10.0 | 18.0 | 0.00 | 0.17 | 0.12 | 89 | 1001.2 |
| 20260905192517 | 60 | 12 | 9.0 | 18.0 | 0.00 | 0.17 | 0.12 | 89 | 1001.3 |
| 20260905192035 | 60 | 355 | 7.0 | 19.0 | 0.00 | 0.17 | 0.12 | 90 | 1001.3 |
| 20260905191524 | 60 | 317 | 7.0 | 19.0 | 0.00 | 0.17 | 0.12 | 89 | 1001.4 |
| 20260905191032 | 60 | 58 | 8.0 | 18.0 | 0.00 | 0.17 | 0.12 | 89 | 1001.2 |
| 20260905190530 | 60 | 18 | 8.0 | 19.0 | 0.00 | 0.17 | 0.12 | 89 | 1001.3 |
| 20260905190024 | 60 | 345 | 11.0 | 19.0 | 0.00 | 0.17 | 0.12 | 89 | 1001.1 |
| 20260905185523 | 60 | 76 | 9.0 | 19.0 | 0.00 | 0.19 | 0.12 | 89 | 1001.2 |
| 20260905185021 | 60 | 10 | 8.0 | 19.0 | 0.00 | 0.19 | 0.12 | 90 | 1001.1 |
| 20260905184519 | 60 | 18 | 8.0 | 18.0 | 0.00 | 0.19 | 0.12 | 90 | 1001.0 |
| 20260905184017 | 60 | 316 | 8.0 | 18.0 | 0.00 | 0.19 | 0.12 | 90 | 1000.9 |
| 20260905183525 | 60 | 51 | 8.0 | 15.0 | 0.00 | 0.19 | 0.12 | 90 | 1001.0 |
| 20260905183023 | 60 | 324 | 7.0 | 15.0 | 0.00 | 0.19 | 0.12 | 90 | 1001.0 |
| 20260905182522 | 60 | 32 | 6.0 | 15.0 | 0.00 | 0.19 | 0.12 | 90 | 1001.0 |
| 20260905182019 | 60 | 321 | 8.0 | 14.0 | 0.00 | 0.19 | 0.12 | 90 | 1000.9 |
| 20260905181517 | 61 | 27 | 7.0 | 15.0 | 0.00 | 0.19 | 0.12 | 90 | 1000.8 |
| 20260905181024 | 61 | 21 | 8.0 | 22.0 | 0.00 | 0.19 | 0.12 | 90 | 1000.8 |
| 20260905180524 | 61 | 56 | 8.0 | 22.0 | 0.00 | 0.19 | 0.12 | 90 | 1000.8 |
| 20260905180021 | 61 | 51 | 8.0 | 18.0 | 0.00 | 0.19 | 0.12 | 90 | 1000.6 |
| 20260905175519 | 61 | 58 | 9.0 | 18.0 | 0.00 | 0.30 | 0.12 | 90 | 1000.6 |
| 20260905175018 | 61 | 34 | 8.0 | 23.0 | 0.00 | 0.30 | 0.12 | 91 | 1000.6 |
| 20260905174525 | 61 | 267 | 8.0 | 25.0 | 0.00 | 0.30 | 0.12 | 91 | 1000.5 |
| 20260905174034 | 61 | 16 | 10.0 | 25.0 | 0.00 | 0.30 | 0.12 | 91 | 1000.6 |
| 20260905173521 | 61 | 40 | 9.0 | 17.0 | 0.00 | 0.30 | 0.12 | 91 | 1000.6 |
| 20260905173019 | 61 | 27 | 9.0 | 22.0 | 0.00 | 0.30 | 0.12 | 91 | 1000.4 |
| 20260905172517 | 61 | 2 | 7.0 | 22.0 | 0.01 | 0.30 | 0.12 | 91 | 1000.6 |
| 20260905172024 | 61 | 90 | 10.0 | 19.0 | 0.01 | 0.30 | 0.12 | 92 | 1000.5 |
| 20260905171523 | 61 | 319 | 8.0 | 18.0 | 0.01 | 0.30 | 0.12 | 92 | 1000.4 |
| 20260905171033 | 61 | 20 | 7.0 | 20.0 | 0.01 | 0.30 | 0.12 | 92 | 1000.3 |
| 20260905170521 | 61 | 308 | 8.0 | 20.0 | 0.01 | 0.30 | 0.12 | 92 | 1000.4 |
| 20260905170020 | 61 | 77 | 8.0 | 19.0 | 0.02 | 0.30 | 0.12 | 92 | 1000.2 |
| 20260905165517 | 61 | 19 | 8.0 | 17.0 | 0.03 | 0.49 | 0.12 | 93 | 1000.1 |
| 20260905165024 | 61 | 55 | 7.0 | 19.0 | 0.03 | 0.49 | 0.12 | 93 | 1000.1 |
| 20260905164525 | 61 | 9 | 8.0 | 19.0 | 0.04 | 0.49 | 0.12 | 93 | 1000.0 |
| 20260905164022 | 61 | 34 | 8.0 | 19.0 | 0.04 | 0.49 | 0.12 | 93 | 1000.0 |
| 20260905163519 | 61 | 6 | 7.0 | 18.0 | 0.04 | 0.49 | 0.12 | 93 | 1000.0 |
| 20260905163028 | 61 | 59 | 7.0 | 18.0 | 0.05 | 0.49 | 0.12 | 93 | 999.9 |
| 20260905162525 | 61 | 349 | 8.0 | 17.0 | 0.05 | 0.48 | 0.11 | 93 | 999.8 |
| 20260905162023 | 61 | 23 | 9.0 | 17.0 | 0.05 | 0.48 | 0.11 | 93 | 999.8 |
| 20260905161522 | 61 | 7 | 9.0 | 17.0 | 0.05 | 0.48 | 0.11 | 93 | 999.7 |
| 20260905161030 | 61 | 68 | 8.0 | 20.0 | 0.05 | 0.48 | 0.11 | 93 | 999.6 |
| 20260905160517 | 60 | 40 | 9.0 | 19.0 | 0.05 | 0.48 | 0.11 | 93 | 999.4 |
| 20260905160029 | 60 | 332 | 6.0 | 19.0 | 0.04 | 0.47 | 0.10 | 93 | 999.6 |
| 20260905155523 | 60 | 21 | 8.0 | 18.0 | 0.03 | 1.23 | 0.09 | 93 | 999.6 |
| 20260905155021 | 60 | 360 | 9.0 | 17.0 | 0.03 | 1.23 | 0.09 | 93 | 999.4 |
| 20260905154519 | 60 | 357 | 8.0 | 17.0 | 0.02 | 1.22 | 0.08 | 93 | 999.5 |
| 20260905154017 | 60 | 297 | 8.0 | 15.0 | 0.02 | 1.22 | 0.08 | 93 | 999.4 |
| 20260905153525 | 60 | 343 | 6.0 | 16.0 | 0.01 | 1.21 | 0.07 | 93 | 999.4 |
| 20260905153024 | 60 | 60 | 8.0 | 19.0 | 0.01 | 1.21 | 0.07 | 93 | 999.5 |
| 20260905152522 | 60 | 311 | 8.0 | 19.0 | 0.00 | 1.20 | 0.06 | 93 | 999.4 |
| 20260905152020 | 60 | 37 | 7.0 | 15.0 | 0.00 | 1.20 | 0.06 | 92 | 999.4 |
| 20260905151518 | 60 | 354 | 5.0 | 13.0 | 0.00 | 1.20 | 0.06 | 92 | 999.4 |
| 20260905151030 | 61 | 351 | 5.0 | 14.0 | 0.00 | 1.20 | 0.06 | 92 | 999.4 |
| 20260905150524 | 61 | 5 | 6.0 | 14.0 | 0.00 | 1.20 | 0.06 | 92 | 999.4 |
| 20260905150022 | 61 | 333 | 5.0 | 12.0 | 0.00 | 1.20 | 0.06 | 92 | 999.5 |
| 20260905145519 | 61 | 293 | 6.0 | 13.0 | 0.00 | 2.16 | 0.06 | 91 | 999.5 |
| 20260905145017 | 61 | 51 | 5.0 | 14.0 | 0.00 | 2.16 | 0.06 | 91 | 999.5 |
| 20260905144524 | 61 | 326 | 7.0 | 14.0 | 0.00 | 2.16 | 0.06 | 90 | 999.4 |
| 20260905144024 | 62 | 341 | 5.0 | 12.0 | 0.00 | 2.16 | 0.06 | 90 | 999.5 |
| 20260905143522 | 62 | 55 | 5.0 | 12.0 | 0.00 | 2.16 | 0.06 | 90 | 999.6 |
| 20260905143019 | 61 | 52 | 7.0 | 14.0 | 0.00 | 2.16 | 0.06 | 89 | 999.5 |
| 20260905142517 | 61 | 26 | 8.0 | 14.0 | 0.00 | 2.16 | 0.06 | 89 | 999.5 |
| 20260905142024 | 61 | 21 | 5.0 | 11.0 | 0.00 | 2.16 | 0.06 | 90 | 999.5 |
| 20260905141535 | 61 | 331 | 6.0 | 11.0 | 0.00 | 2.16 | 0.06 | 89 | 999.4 |
| 20260905141024 | 61 | 300 | 4.0 | 10.0 | 0.00 | 2.16 | 0.06 | 89 | 999.5 |
| 20260905140521 | 61 | 349 | 5.0 | 14.0 | 0.00 | 2.16 | 0.06 | 90 | 999.5 |
| 20260905140020 | 60 | 326 | 6.0 | 14.0 | 0.00 | 2.16 | 0.06 | 89 | 999.5 |
| 20260905135528 | 60 | 24 | 5.0 | 13.0 | 0.00 | 2.37 | 0.06 | 90 | 999.6 |
| 20260905135040 | 60 | 338 | 5.0 | 13.0 | 0.00 | 2.37 | 0.06 | 90 | 999.5 |
| 20260905134523 | 60 | 6 | 6.0 | 15.0 | 0.00 | 2.37 | 0.06 | 90 | 999.5 |
| 20260905134021 | 60 | 323 | 6.0 | 15.0 | 0.00 | 2.37 | 0.06 | 90 | 999.4 |
| 20260905133519 | 60 | 20 | 6.0 | 12.0 | 0.00 | 2.37 | 0.06 | 90 | 999.4 |
| 20260905133018 | 60 | 340 | 7.0 | 13.0 | 0.00 | 2.37 | 0.06 | 89 | 999.3 |
| 20260905132536 | 60 | 25 | 7.0 | 18.0 | 0.00 | 2.37 | 0.06 | 89 | 999.3 |
| 20260905132024 | 60 | 1 | 9.0 | 18.0 | 0.00 | 2.37 | 0.06 | 89 | 999.3 |
| 20260905131522 | 60 | 293 | 6.0 | 12.0 | 0.00 | 2.37 | 0.06 | 89 | 999.3 |
| 20260905131023 | 60 | 15 | 6.0 | 16.0 | 0.00 | 2.37 | 0.06 | 90 | 999.2 |
| 20260905130519 | 60 | 29 | 5.0 | 13.0 | 0.00 | 2.37 | 0.06 | 90 | 999.3 |
| 20260905130017 | 60 | 348 | 5.0 | 14.0 | 0.00 | 2.37 | 0.06 | 91 | 999.3 |
| 20260905125525 | 60 | 328 | 4.0 | 14.0 | 0.00 | 2.63 | 0.06 | 90 | 999.4 |
| 20260905125024 | 60 | 327 | 5.0 | 12.0 | 0.00 | 2.63 | 0.06 | 91 | 999.4 |
| 20260905124522 | 60 | 335 | 3.0 | 12.0 | 0.00 | 2.63 | 0.06 | 91 | 999.2 |
| 20260905124024 | 60 | 329 | 5.0 | 12.0 | 0.00 | 2.63 | 0.06 | 91 | 999.2 |
| 20260905123517 | 60 | 16 | 4.0 | 12.0 | 0.00 | 2.63 | 0.06 | 92 | 999.4 |
| 20260905123024 | 60 | 321 | 5.0 | 11.0 | 0.00 | 2.63 | 0.06 | 92 | 999.3 |
| 20260905122524 | 60 | 58 | 4.0 | 15.0 | 0.00 | 2.63 | 0.06 | 93 | 999.3 |
| 20260905122021 | 60 | 356 | 5.0 | 15.0 | 0.00 | 2.63 | 0.06 | 93 | 999.2 |
| 20260905121520 | 60 | 22 | 4.0 | 15.0 | 0.00 | 2.63 | 0.06 | 94 | 999.3 |
| 20260905121017 | 60 | 297 | 6.0 | 14.0 | 0.01 | 2.63 | 0.06 | 94 | 999.2 |
| 20260905120525 | 60 | 68 | 6.0 | 13.0 | 0.01 | 2.63 | 0.06 | 94 | 999.4 |
| 20260905120024 | 60 | 9 | 8.0 | 15.0 | 0.02 | 2.63 | 0.06 | 94 | 999.4 |
| 20260905115521 | 59 | 58 | 7.0 | 14.0 | 0.02 | 3.13 | 0.06 | 95 | 999.3 |
| 20260905115030 | 59 | 321 | 6.0 | 13.0 | 0.03 | 3.13 | 0.06 | 95 | 999.2 |
| 20260905114518 | 59 | 333 | 5.0 | 13.0 | 0.04 | 3.13 | 0.06 | 95 | 999.4 |
| 20260905114025 | 59 | 45 | 6.0 | 14.0 | 0.05 | 3.13 | 0.06 | 95 | 999.3 |
| 20260905113535 | 59 | 14 | 8.0 | 14.0 | 0.05 | 3.13 | 0.06 | 95 | 999.4 |
| 20260905113022 | 60 | 48 | 7.0 | 17.0 | 0.05 | 3.13 | 0.06 | 95 | 999.4 |
| 20260905112521 | 60 | 110 | 9.0 | 15.0 | 0.05 | 3.13 | 0.06 | 95 | 999.1 |
| 20260905112019 | 60 | 49 | 7.0 | 16.0 | 0.05 | 3.13 | 0.06 | 95 | 999.2 |
| 20260905111518 | 60 | 66 | 7.0 | 16.0 | 0.05 | 3.13 | 0.06 | 95 | 999.1 |
| 20260905111019 | 61 | 67 | 8.0 | 16.0 | 0.04 | 3.12 | 0.05 | 95 | 999.0 |
| 20260905110525 | 62 | 25 | 3.0 | 7.0 | 0.04 | 3.12 | 0.05 | 96 | 999.0 |
| 20260905110024 | 62 | 319 | 1.0 | 3.0 | 0.03 | 3.11 | 0.04 | 96 | 998.9 |
| 20260905105524 | 62 | 1 | 1.0 | 3.0 | 0.03 | 3.51 | 0.04 | 96 | 998.9 |
| 20260905105022 | 62 | 4 | 1.0 | 2.0 | 0.02 | 3.50 | 0.03 | 95 | 998.9 |
| 20260905104520 | 62 | 308 | 0.0 | 2.0 | 0.02 | 3.49 | 0.02 | 96 | 998.8 |
| 20260905104017 | 62 | 342 | 0.0 | 0.0 | 0.01 | 3.48 | 0.01 | 96 | 998.8 |